[[{"header":{"parameterUnit":"m.s-1","parameterCategory":2,"la1":30.2991,"la2":30.254,"lo1":-89.0895,"lo2":-89.0444,"dy":0.0017,"dx":0.0017,"nx":28,"ny":28,"refTime":"2023-07-29T03:00:00:Z","depth":"0","parameterNumber":2,"parameterNumberName":"U-component_of_CURRENTS"},"data":[0,0,0,0,0,0,0,0,0,0,0,0,0,0,0,0,0,0,0,0,0,0,0,0,0,0,0,0,0,0,0,0,0,0,0,0,0,0,0,0,0,0,0,0,0,0,0,0,0,0,0,0,0,0,0,0,0,0,0.4769,0.4771,0,0.4859,0.486,0.486,0.4872,0.4872,0.4872,0.4872,0.4872,0.4872,0.4872,0,0,0,0,0,0,0,0,0,0,0,0,0,0.4583,0.4586,0.4769,0.4771,0.4773,0.4859,0.486,0.486,0.4872,0.4872,0.4872,0.4872,0.4872,0.4872,0.4872,0,0,0,0,0,0,0,0,0,0,0,0,0,0.466,0.4587,0.4769,0.4795,0.4799,0.4859,0.486,0.4861,0.4872,0.4872,0.4872,0.4872,0.4872,0.4872,0.4872,0.4878,0,0,0.4873,0.4873,0,0,0,0,0,0,0,0,0.4656,0.4666,0.4789,0.4793,0.4798,0.4861,0.4795,0.4864,0.4872,0.4836,0.4872,0.4872,0.4865,0.4866,0.4874,0.4878,0.4878,0.4873,0.4873,0.4873,0.4873,0,0,0,0,0,0,0,0.4651,0.4662,0.4797,0.4791,0.4797,0.4795,0.4804,0.4808,0.4843,0.4839,0.4842,0.4865,0.4866,0.4873,0.4873,0.4878,0.4873,0.4873,0.4873,0.4873,0.4999,0.5003,0,0,0,0,0,0,0.4657,0.4658,0.4794,0.4801,0.4734,0.4799,0.481,0.4835,0.4845,0.485,0.4865,0.4865,0.4873,0.4873,0.4873,0.5026,0.4873,0.4873,0.4873,0.4996,0.5,0.5004,0,0,0,0,0,0,0.4653,0.4669,0.4791,0.4737,0.4753,0.4803,0.4831,0.4837,0.4863,0.4867,0.4868,0.4888,0.4873,0.4873,0.4909,0.502,0.4873,0.4873,0.4992,0.4997,0.5002,0.5237,0,0,0,0,0,0,0.4647,0.4666,0.4685,0.4738,0.4757,0.485,0.4832,0.4839,0.488,0.4881,0.4887,0.4885,0.4873,0.4909,0.4909,0.5018,0.4873,0.4988,0.4995,0.5,0.5225,0.525,0.527,0,0,0,0,0,0.464,0.467,0.4685,0.4702,0.4782,0.4852,0.4862,0.489,0.4881,0.4907,0.4915,0.4886,0.4948,0.4911,0.4911,0.5022,0.4985,0.4993,0.5,0.5215,0.5245,0.527,0,0,0,0,0,0,0.4588,0.4676,0.4694,0.4746,0.4807,0.4858,0.4892,0.4902,0.4929,0.493,0.4915,0.4916,0.4996,0.4959,0.4919,0.5073,0.4967,0.4975,0.5131,0.5159,0.5181,0.5169,0.4874,0,0,0,0,0,0.4591,0.4639,0.4718,0.4758,0.48,0.4846,0.4877,0.49,0.4934,0.4945,0.4948,0.4965,0.5023,0.5047,0.5062,0.5135,0.5127,0.5206,0.5229,0.5248,0.5237,0.53,0.5328,0.5028,0.5027,0.5027,0,0,0.458,0.4636,0.4662,0.4752,0.4803,0.4889,0.4864,0.4929,0.5005,0.494,0.5023,0.5032,0.5054,0.5154,0.5188,0.5141,0.535,0.5258,0.5275,0.5252,0.5311,0.534,0.5366,0.5032,0.5032,0.5031,0,0,0.4608,0.4644,0.4712,0.4783,0.4879,0.4914,0.4941,0.5007,0.5047,0.5122,0.5123,0.5188,0.5234,0.5299,0.5337,0.548,0.5458,0.5496,0.5617,0.5682,0.5707,0.5729,0.5847,0.5877,0.5518,0.5518,0.5519,0,0.4596,0.4708,0.4738,0.4841,0.492,0.4938,0.5046,0.5094,0.5155,0.5221,0.5172,0.5299,0.5317,0.5484,0.5551,0.5539,0.5572,0.5525,0.5714,0.5734,0.5753,0.5867,0.5897,0.5531,0.5529,0.5528,0.5527,0,0.4701,0.48,0.4853,0.4995,0.506,0.5159,0.5244,0.5309,0.5343,0.5397,0.5528,0.5534,0.5611,0.5659,0.5659,0.5828,0.5815,0.5733,0.5652,0.5798,0.5909,0.5937,0.5548,0.5544,0.554,0.5537,0,0,0.4681,0.489,0.4915,0.5031,0.5167,0.524,0.5377,0.5531,0.5643,0.5675,0.5805,0.5921,0.5893,0.5928,0.5932,0.5996,0.6204,0.5934,0.5931,0.6063,0.6399,0.6286,0.6304,0.6155,0.6159,0.6162,0.6458,0,0.478,0.4997,0.5065,0.5272,0.5413,0.5487,0.5614,0.5736,0.5818,0.5927,0.5968,0.6065,0.6009,0.6051,0.6114,0.6164,0.627,0.6133,0.6222,0.6226,0.6116,0.6329,0.596,0.6179,0.6484,0.6488,0.6491,0,0.4887,0.5038,0.5255,0.5482,0.5544,0.5641,0.586,0.5971,0.6127,0.6186,0.6265,0.6259,0.6391,0.6264,0.6448,0.6363,0.6407,0.6426,0.6436,0.6247,0.616,0.6061,0.6216,0.6063,0.6532,0.6529,0.6526,0,0.4913,0.517,0.5349,0.5436,0.5674,0.5781,0.5885,0.6061,0.6161,0.6327,0.6381,0.6504,0.6534,0.6605,0.6641,0.6572,0.6799,0.6707,0.6665,0.666,0.6315,0.627,0.6319,0.6835,0.6834,0.6833,0.6832,0,0.5016,0.5179,0.5382,0.5501,0.5715,0.5835,0.602,0.6163,0.629,0.6397,0.6482,0.655,0.6605,0.6707,0.6742,0.6808,0.6901,0.6733,0.6731,0.6395,0.6356,0.6171,0.611,0.6844,0.6842,0.684,0.6838,0,0.5064,0.5182,0.5434,0.5684,0.5741,0.5901,0.606,0.6156,0.6314,0.6434,0.6474,0.6623,0.6777,0.6851,0.699,0.6926,0.6816,0.7001,0.6632,0.6577,0.6332,0.6296,0.617,0.6,0.7026,0.7025,0.7024,0,0.5138,0.5258,0.5538,0.5614,0.5732,0.5915,0.5981,0.6153,0.6219,0.6463,0.6489,0.6687,0.6761,0.6962,0.6922,0.7015,0.6814,0.6703,0.6474,0.6316,0.6278,0.6094,0.5946,0.6171,0.6163,0.6157,0.6152,0,0.5294,0.5366,0.5539,0.5654,0.5747,0.5863,0.5972,0.6013,0.6178,0.627,0.6401,0.6495,0.669,0.6562,0.6666,0.6672,0.6353,0.6574,0.6476,0.568,0.5412,0.5243,0.6048,0.6095,0.61,0.6105,0.6108,0.611,0.5402,0.5484,0.5584,0.5682,0.5739,0.5728,0.5724,0.5784,0.583,0.5842,0.613,0.6092,0.6151,0.6227,0.6224,0.5957,0.6037,0.5711,0.5724,0.5588,0.5255,0.5976,0.5953,0.5958,0.5962,0.5966,0.5969,0,0.5464,0.5454,0.5553,0.5588,0.553,0.5605,0.5612,0.55,0.5415,0.5473,0.5517,0.5454,0.5338,0.5386,0.5278,0.5104,0.4881,0.4976,0.4603,0.4532,0.5223,0.5008,0.4692,0.4692,0.4692,0.4693,0.4693,0.4693,0.5478,0.5472,0.5449,0.5322,0.5301,0.5118,0.5067,0.4926,0.4874,0.4646,0.4515,0.46,0.4844,0.4849,0.4643,0.4528,0.4231,0.3999,0.4131,0.4582,0.4649,0.4712,0.4496,0.4077,0.4077,0.3151,0.3145,0.314]},{"header":{"parameterUnit":"m.s-1","parameterCategory":2,"la1":30.2991,"la2":30.254,"lo1":-89.0895,"lo2":-89.0444,"dy":0.0017,"dx":0.0017,"nx":28,"ny":28,"refTime":"2023-07-29T03:00:00:Z","depth":"0","parameterNumber":3,"parameterNumberName":"V-component_of_CURRENTS"},"data":[0,0,0,0,0,0,0,0,0,0,0,0,0,0,0,0,0,0,0,0,0,0,0,0,0,0,0,0,0,0,0,0,0,0,0,0,0,0,0,0,0,0,0,0,0,0,0,0,0,0,0,0,0,0,0,0,0,0,0.0034,0.0033,0,-0.0033,-0.0033,-0.0034,-0.006,-0.006,-0.006,-0.0061,-0.0172,-0.0175,-0.0178,0,0,0,0,0,0,0,0,0,0,0,0,0,0.0131,0.013,0.0034,0.0033,0.0032,-0.0033,-0.0033,-0.0034,-0.006,-0.006,-0.006,-0.0061,-0.0171,-0.0175,-0.0178,0,0,0,0,0,0,0,0,0,0,0,0,0,0.0083,0.0129,0.0035,0.0008,0.0005,-0.0032,-0.0033,-0.0034,-0.006,-0.006,-0.006,-0.0061,-0.017,-0.0174,-0.0178,-0.0199,0,0,-0.0191,-0.0193,0,0,0,0,0,0,0,0,0.0086,0.008,0.0013,0.001,0.0006,-0.0042,-0.004,-0.0093,-0.006,-0.0031,-0.0061,-0.0061,-0.0135,-0.0142,-0.0148,-0.0204,-0.0209,-0.0192,-0.0194,-0.0196,-0.0197,0,0,0,0,0,0,0,0.0089,0.0082,0.0012,0.0012,0.0008,-0.0004,-0.001,-0.005,-0.0078,-0.0034,-0.0037,-0.005,-0.0137,-0.0144,-0.0151,-0.021,-0.0191,-0.0195,-0.0198,-0.0199,-0.0229,-0.0228,0,0,0,0,0,0,0.009,0.0086,0.0014,0.0009,0.0041,-0.0005,-0.0013,-0.0023,-0.0077,-0.0087,-0.005,-0.0051,-0.0136,-0.0146,-0.0155,-0.0122,-0.0196,-0.02,-0.0202,-0.0231,-0.0229,-0.0227,0,0,0,0,0,0,0.0092,0.0084,0.0017,0.0043,0.0033,-0.0007,-0.0018,-0.0024,-0.0029,-0.009,-0.0099,-0.0049,-0.0137,-0.0149,-0.0171,-0.0129,-0.0202,-0.0205,-0.0233,-0.023,-0.0228,-0.0095,0,0,0,0,0,0,0.0095,0.0086,0.0094,0.0043,0.0031,0.0016,-0.0019,-0.0025,-0.0039,-0.0041,-0.0093,-0.0103,-0.0138,-0.0164,-0.0175,-0.0136,-0.0209,-0.0235,-0.0232,-0.0229,-0.0102,-0.0089,-0.0077,0,0,0,0,0,0.0099,0.0119,0.0095,0.0086,0.0038,0.0016,0.0011,-0.0016,-0.0039,-0.0025,-0.0061,-0.0102,-0.0151,-0.0167,-0.018,-0.0141,-0.0237,-0.0233,-0.0229,-0.0107,-0.0091,-0.0077,0,0,0,0,0,0,0.0171,0.0116,0.0089,0.0091,0.006,0.0011,0.0023,-0.0012,-0.0029,-0.0036,-0.0092,-0.0104,-0.0103,-0.0145,-0.016,-0.0139,-0.0196,-0.0195,-0.0099,-0.0084,-0.0072,-0.0006,-0.0212,0,0,0,0,0,0.0186,0.0181,0.0126,0.0128,0.0119,0.0068,0.0057,0.0027,-0.0006,-0.0014,-0.0051,-0.0085,-0.0097,-0.011,-0.0135,-0.0135,-0.0151,-0.0115,-0.0102,-0.0091,-0.0046,-0.0039,-0.0021,-0.0214,-0.0214,-0.0214,0,0,0.0209,0.018,0.0176,0.0142,0.0118,0.0132,0.0064,0.0049,0.0066,-0.0026,-0.0005,-0.005,-0.0089,-0.0075,-0.0078,-0.0105,-0.0049,-0.0086,-0.0077,-0.0036,-0.0033,-0.0013,0.0003,-0.0212,-0.0212,-0.0213,0,0,0.0271,0.0234,0.026,0.0243,0.0205,0.0177,0.0174,0.0125,0.0118,0.0112,0.0065,0.0057,0.0013,0.0016,0.0008,0.0071,0.0014,0.0047,0.0166,0.0171,0.0188,0.0203,0.0193,0.0206,0.0057,0.0057,0.0057,0,0.0308,0.0328,0.0267,0.0294,0.0299,0.0207,0.0249,0.0226,0.0176,0.0198,0.0139,0.0133,0.0077,0.0136,0.0154,0.0105,0.0086,0.0111,0.019,0.0204,0.0217,0.0204,0.0216,0.0064,0.0063,0.0062,0.0062,0,0.0391,0.0411,0.0429,0.0435,0.0433,0.0446,0.0402,0.0406,0.0369,0.0352,0.0383,0.0312,0.0324,0.0292,0.0237,0.0309,0.0258,0.0202,0.0158,0.0245,0.0224,0.0235,0.0074,0.0071,0.0069,0.0068,0,0,0.0481,0.0488,0.0501,0.0538,0.0508,0.0524,0.0558,0.0587,0.0646,0.0583,0.0667,0.0619,0.0575,0.0564,0.049,0.0484,0.0525,0.0386,0.0383,0.0388,0.0529,0.0469,0.0473,0.0472,0.0475,0.0478,0.0473,0,0.0577,0.0662,0.064,0.0736,0.078,0.0733,0.0791,0.0797,0.0785,0.0836,0.0776,0.0809,0.0678,0.0684,0.0662,0.0571,0.0561,0.0531,0.0436,0.0434,0.0379,0.0487,0.0404,0.0393,0.0483,0.0485,0.0486,0,0.0685,0.0729,0.0833,0.0909,0.093,0.0976,0.1068,0.1101,0.1133,0.1129,0.1139,0.1073,0.1077,0.093,0.0856,0.0838,0.0709,0.0617,0.0613,0.053,0.0396,0.0322,0.0407,0.0142,0.0501,0.05,0.0499,0,0.0795,0.0879,0.0973,0.099,0.105,0.1117,0.1159,0.1205,0.1268,0.132,0.1374,0.1337,0.1341,0.12,0.0995,0.0931,0.0893,0.0776,0.0606,0.0598,0.0502,0.0482,0.0337,0.0731,0.0731,0.0731,0.0731,0,0.0907,0.0989,0.1037,0.1089,0.1233,0.1238,0.1386,0.1427,0.1502,0.1621,0.1535,0.1627,0.1407,0.1334,0.1109,0.0919,0.0986,0.0675,0.0617,0.0541,0.0526,0.0267,0.0129,0.0731,0.0731,0.0731,0.0731,0,0.0999,0.1024,0.1145,0.1242,0.128,0.1385,0.1507,0.1606,0.1678,0.1831,0.1861,0.1865,0.1799,0.1555,0.1347,0.1093,0.0731,0.0793,0.0714,0.0647,0.0215,0.0089,-0.0088,-0.0183,0.0618,0.0617,0.0616,0,0.105,0.1113,0.125,0.1318,0.1363,0.1497,0.1583,0.1679,0.1785,0.1994,0.2085,0.2091,0.2127,0.181,0.1369,0.1001,0.0733,0.0646,0.0508,0.023,0.0046,-0.0067,-0.0141,0.0418,0.0415,0.0413,0.0412,0,0.1152,0.1196,0.1295,0.1413,0.152,0.1651,0.1792,0.191,0.2059,0.2234,0.2468,0.2538,0.2245,0.1872,0.1337,0.1036,0.0437,0.0591,0.033,-0.0071,-0.0226,-0.0359,0.0366,0.0393,0.0395,0.0396,0.0397,0.0398,0.1232,0.1305,0.1408,0.1524,0.1641,0.1797,0.1939,0.2117,0.2358,0.2652,0.2724,0.2848,0.2276,0.1564,0.1147,0.0273,0.0318,-0.0039,-0.0152,-0.0227,-0.0362,0.0331,0.027,0.0271,0.0272,0.0273,0.0273,0,0.1308,0.1371,0.1491,0.1644,0.1773,0.1822,0.2064,0.2237,0.2553,0.2794,0.3026,0.276,0.2053,0.1305,0.0174,-0.0396,-0.0591,-0.0696,-0.0895,-0.092,-0.0291,-0.0347,-0.0575,-0.0575,-0.0575,-0.0575,-0.0574,-0.0574,0.1354,0.1456,0.1504,0.1716,0.1825,0.2034,0.2189,0.2477,0.2687,0.2969,0.2995,0.301,0.2398,0.0506,-0.082,-0.1111,-0.1426,-0.1547,-0.1635,-0.1266,-0.1215,-0.1166,-0.1251,-0.1666,-0.1667,-0.225,-0.2256,-0.2261]}],[{"header":{"parameterUnit":"m.s-1","parameterCategory":2,"la1":30.2991,"la2":30.254,"lo1":-89.0895,"lo2":-89.0444,"dy":0.0017,"dx":0.0017,"nx":28,"ny":28,"refTime":"2023-07-29T03:00:00:Z","depth":"2","parameterNumber":2,"parameterNumberName":"U-component_of_CURRENTS"},"data":[0,0,0,0,0,0,0,0,0,0,0,0,0,0,0,0,0,0,0,0,0,0,0,0,0,0,0,0,0,0,0,0,0,0,0,0,0,0,0,0,0,0,0,0,0,0,0,0,0,0,0,0,0,0,0,0,0,0,0.3686,0.3688,0,0.3744,0.3744,0.3743,0.3738,0.3739,0.3739,0.374,0.3716,0.3714,0.3713,0,0,0,0,0,0,0,0,0,0,0,0,0,0.3511,0.3514,0.3686,0.3688,0.369,0.3744,0.3744,0.3743,0.3738,0.3739,0.3739,0.374,0.3716,0.3715,0.3713,0,0,0,0,0,0,0,0,0,0,0,0,0,0.3564,0.3514,0.3686,0.3707,0.3711,0.3745,0.3744,0.3743,0.3738,0.3739,0.374,0.374,0.3717,0.3715,0.3713,0.3681,0,0,0.3707,0.3706,0,0,0,0,0,0,0,0,0.3561,0.3568,0.3701,0.3706,0.371,0.375,0.3674,0.3724,0.3737,0.3709,0.374,0.3741,0.373,0.3727,0.3713,0.368,0.3679,0.3707,0.3706,0.3705,0.3704,0,0,0,0,0,0,0,0.3558,0.3566,0.3692,0.3704,0.371,0.3695,0.3702,0.3682,0.3699,0.3712,0.3716,0.3749,0.3729,0.3714,0.3712,0.3679,0.3707,0.3705,0.3704,0.3703,0.382,0.3824,0,0,0,0,0,0,0.3587,0.3563,0.369,0.3695,0.3656,0.3699,0.3706,0.3722,0.3701,0.3704,0.3748,0.3749,0.3717,0.3714,0.3711,0.3834,0.3705,0.3703,0.3702,0.3816,0.3821,0.3826,0,0,0,0,0,0,0.3582,0.3597,0.3688,0.3645,0.3658,0.3703,0.372,0.3723,0.3742,0.3733,0.3731,0.3771,0.3718,0.3714,0.3709,0.3827,0.3702,0.3701,0.3811,0.3818,0.3823,0.3975,0,0,0,0,0,0,0.3577,0.3594,0.3622,0.3646,0.3662,0.3721,0.3721,0.3724,0.3768,0.3769,0.375,0.3747,0.3718,0.3712,0.3708,0.3822,0.3699,0.3806,0.3814,0.3821,0.3965,0.3986,0.4004,0,0,0,0,0,0.357,0.3594,0.3622,0.364,0.3696,0.3723,0.3727,0.3751,0.3769,0.377,0.3761,0.3749,0.3764,0.3711,0.3705,0.3822,0.3802,0.3812,0.3821,0.3956,0.3981,0.4003,0,0,0,0,0,0,0.3547,0.3598,0.3629,0.3675,0.3712,0.3729,0.3725,0.3771,0.3764,0.378,0.375,0.3744,0.3804,0.3779,0.3724,0.3886,0.3803,0.3812,0.3909,0.3932,0.3952,0.3932,0.3698,0,0,0,0,0,0.3559,0.3571,0.3636,0.3669,0.3671,0.3707,0.3728,0.3779,0.3785,0.3785,0.3775,0.3794,0.3834,0.385,0.3854,0.3904,0.3918,0.3996,0.4015,0.4032,0.4017,0.417,0.4202,0.3857,0.3857,0.3857,0,0,0.3559,0.3593,0.3602,0.3663,0.3662,0.3725,0.3713,0.3766,0.3864,0.3783,0.3846,0.3841,0.3858,0.3929,0.3961,0.3925,0.4138,0.4044,0.4057,0.4033,0.4183,0.4217,0.4247,0.3863,0.3862,0.3861,0,0,0.3588,0.3579,0.362,0.3649,0.3721,0.3745,0.3776,0.3825,0.3869,0.3954,0.3942,0.3982,0.4027,0.4057,0.4088,0.4214,0.4228,0.426,0.4349,0.45,0.453,0.4555,0.461,0.464,0.4281,0.4282,0.4282,0,0.3605,0.3652,0.3637,0.3702,0.3731,0.3763,0.384,0.3901,0.397,0.4017,0.4007,0.4109,0.4104,0.4221,0.4267,0.4262,0.4315,0.4256,0.4526,0.4552,0.4576,0.4626,0.4657,0.429,0.4289,0.4288,0.4288,0,0.369,0.3723,0.3718,0.3804,0.3853,0.3884,0.3991,0.4035,0.4102,0.4203,0.432,0.4307,0.4382,0.4414,0.4373,0.4554,0.4524,0.4526,0.4462,0.462,0.4662,0.4691,0.4302,0.4299,0.4297,0.4295,0,0,0.3691,0.3767,0.3762,0.3812,0.3897,0.3948,0.4065,0.4181,0.4326,0.439,0.4528,0.4595,0.4615,0.4645,0.4627,0.4716,0.4916,0.4694,0.4698,0.4737,0.5208,0.5012,0.5023,0.4992,0.4998,0.5003,0.5166,0,0.3737,0.3835,0.3894,0.3997,0.4017,0.4075,0.4187,0.4337,0.4481,0.4617,0.4653,0.4794,0.4719,0.4776,0.4862,0.4883,0.5002,0.4867,0.5055,0.5058,0.4859,0.5055,0.4637,0.4732,0.5194,0.5198,0.5202,0,0.3803,0.3829,0.3952,0.4043,0.4067,0.4199,0.4361,0.4482,0.4687,0.4817,0.4953,0.5015,0.5097,0.5044,0.5204,0.5131,0.5196,0.5206,0.5216,0.499,0.4918,0.4653,0.4767,0.525,0.5246,0.5242,0.5239,0,0.3756,0.3864,0.3953,0.3987,0.4139,0.4237,0.4302,0.4543,0.4622,0.4947,0.5087,0.5242,0.5293,0.5408,0.541,0.5367,0.5567,0.5535,0.542,0.5404,0.5053,0.4995,0.573,0.573,0.573,0.5729,0.5729,0,0.375,0.3795,0.3958,0.3993,0.4103,0.4244,0.4403,0.4568,0.475,0.4861,0.5179,0.5291,0.5402,0.5499,0.5518,0.5526,0.5697,0.5453,0.5462,0.509,0.5036,0.5475,0.5444,0.5735,0.5734,0.5733,0.5732,0,0.3693,0.3798,0.385,0.4008,0.4095,0.4153,0.4285,0.4428,0.4694,0.4837,0.4918,0.5283,0.5477,0.5573,0.5724,0.5638,0.569,0.5675,0.5165,0.5109,0.5393,0.5368,0.5574,0.5569,0.5564,0.5561,0.5558,0,0.364,0.3723,0.3823,0.3881,0.3973,0.4063,0.4171,0.4351,0.448,0.4787,0.4864,0.5146,0.5299,0.5496,0.5446,0.5495,0.5656,0.513,0.4968,0.5404,0.5393,0.5374,0.5354,0.4569,0.4558,0.4549,0.4542,0,0.3555,0.3643,0.368,0.3742,0.3875,0.3933,0.4074,0.4106,0.4317,0.4508,0.4707,0.4831,0.5045,0.4921,0.503,0.4993,0.5075,0.4947,0.563,0.4649,0.4464,0.445,0.4464,0.4464,0.4472,0.4477,0.4482,0.4485,0.3469,0.3446,0.3537,0.3599,0.3715,0.3808,0.3796,0.3946,0.4022,0.4177,0.4329,0.4437,0.4472,0.4451,0.4345,0.431,0.4641,0.4459,0.4484,0.452,0.4351,0.4167,0.4075,0.408,0.4085,0.4089,0.4092,0,0.33,0.3396,0.3417,0.344,0.3471,0.3639,0.377,0.373,0.3766,0.3871,0.3917,0.3602,0.3599,0.3728,0.3526,0.3508,0.3464,0.3406,0.3322,0.3403,0.3475,0.325,0.2684,0.2679,0.2675,0.2671,0,0,0.3271,0.3231,0.3222,0.3205,0.3298,0.3343,0.3401,0.3357,0.3377,0.3288,0.3254,0.3436,0.3593,0.3073,0.3009,0.2826,0.3092,0.2724,0.3859,0.3842,0.3908,0.4094,0.3841,0,0,0,0,0]},{"header":{"parameterUnit":"m.s-1","parameterCategory":2,"la1":30.2991,"la2":30.254,"lo1":-89.0895,"lo2":-89.0444,"dy":0.0017,"dx":0.0017,"nx":28,"ny":28,"refTime":"2023-07-29T03:00:00:Z","depth":"2","parameterNumber":3,"parameterNumberName":"V-component_of_CURRENTS"},"data":[0,0,0,0,0,0,0,0,0,0,0,0,0,0,0,0,0,0,0,0,0,0,0,0,0,0,0,0,0,0,0,0,0,0,0,0,0,0,0,0,0,0,0,0,0,0,0,0,0,0,0,0,0,0,0,0,0,0,-0.0023,-0.0024,0,-0.0077,-0.0077,-0.0077,-0.0098,-0.0098,-0.0098,-0.0098,-0.0199,-0.0202,-0.0204,0,0,0,0,0,0,0,0,0,0,0,0,0,0.003,0.003,-0.0023,-0.0024,-0.0025,-0.0076,-0.0077,-0.0078,-0.0098,-0.0098,-0.0098,-0.0098,-0.0198,-0.0201,-0.0205,0,0,0,0,0,0,0,0,0,0,0,0,0,-0.0003,0.0029,-0.0023,-0.0043,-0.0045,-0.0076,-0.0077,-0.0078,-0.0098,-0.0098,-0.0098,-0.0098,-0.0197,-0.0201,-0.0205,-0.0229,0,0,-0.0217,-0.0219,0,0,0,0,0,0,0,0,-0.0001,-0.0005,-0.0039,-0.0041,-0.0044,-0.0082,-0.0096,-0.0131,-0.0098,-0.0076,-0.0098,-0.0098,-0.0166,-0.0172,-0.0179,-0.0234,-0.0238,-0.0218,-0.022,-0.0222,-0.0223,0,0,0,0,0,0,0,0.0001,-0.0003,-0.0042,-0.004,-0.0043,-0.006,-0.0064,-0.0102,-0.0119,-0.0078,-0.008,-0.0089,-0.0167,-0.0175,-0.0182,-0.024,-0.0218,-0.0221,-0.0224,-0.0225,-0.0293,-0.0292,0,0,0,0,0,0,0.0005,-0.0001,-0.0041,-0.0044,-0.0024,-0.006,-0.0065,-0.0068,-0.0118,-0.0126,-0.0089,-0.0089,-0.0168,-0.0177,-0.0185,-0.0183,-0.0222,-0.0226,-0.0228,-0.0293,-0.0293,-0.0292,0,0,0,0,0,0,0.0007,0.0003,-0.0039,-0.0025,-0.0032,-0.0061,-0.0065,-0.0069,-0.0075,-0.0126,-0.0134,-0.009,-0.0168,-0.018,-0.0209,-0.0188,-0.0227,-0.0231,-0.0294,-0.0293,-0.0292,-0.02,0,0,0,0,0,0,0.0009,0.0004,0.0008,-0.0025,-0.0033,-0.0038,-0.0065,-0.0071,-0.0082,-0.0083,-0.013,-0.0139,-0.0169,-0.0203,-0.0213,-0.0194,-0.0234,-0.0295,-0.0294,-0.0293,-0.0204,-0.0196,-0.0189,0,0,0,0,0,0.0011,0.0026,0.0008,0.0003,-0.0028,-0.0037,-0.0041,-0.0062,-0.0082,-0.007,-0.0109,-0.0138,-0.0203,-0.0206,-0.0218,-0.02,-0.0296,-0.0294,-0.0293,-0.0207,-0.0197,-0.0189,0,0,0,0,0,0,0.0057,0.0024,0.0004,0.0009,-0.0008,-0.0041,-0.0033,-0.0059,-0.0081,-0.009,-0.0137,-0.0148,-0.0165,-0.0199,-0.0202,-0.0216,-0.0252,-0.0252,-0.0182,-0.0174,-0.0166,-0.0133,-0.0238,0,0,0,0,0,0.0065,0.0065,0.0031,0.0036,0.0032,-0.0004,-0.0012,-0.0034,-0.0062,-0.0071,-0.0103,-0.0141,-0.0169,-0.0184,-0.0216,-0.023,-0.0255,-0.0224,-0.0217,-0.021,-0.0192,-0.0194,-0.0185,-0.0287,-0.0288,-0.0288,0,0,0.0081,0.0064,0.0063,0.0045,0.003,0.0041,-0.0007,-0.0016,-0.0012,-0.0082,-0.0078,-0.0121,-0.0169,-0.0177,-0.0187,-0.0202,-0.0202,-0.0209,-0.0203,-0.0187,-0.0192,-0.0182,-0.0173,-0.0287,-0.0287,-0.0287,0,0,0.0129,0.0103,0.0126,0.0114,0.009,0.0071,0.0071,0.0039,0.0025,0.001,-0.0036,-0.006,-0.0104,-0.0124,-0.0144,-0.0118,-0.0166,-0.0135,-0.0068,-0.0071,-0.0062,-0.0054,-0.0102,-0.0099,-0.0128,-0.0128,-0.0128,0,0.0153,0.0167,0.0133,0.0153,0.0156,0.0092,0.0124,0.0097,0.0059,0.006,0.0027,-0.0019,-0.0071,-0.0069,-0.0065,-0.0099,-0.0125,-0.0096,-0.0059,-0.0052,-0.0046,-0.0096,-0.0094,-0.0123,-0.0124,-0.0124,-0.0124,0,0.0219,0.0224,0.0238,0.0245,0.0253,0.0256,0.0224,0.0208,0.0177,0.0163,0.0153,0.0085,0.0074,0.004,-0.0011,0.0009,-0.0034,-0.0051,-0.0075,-0.0029,-0.0086,-0.0086,-0.0116,-0.0118,-0.0119,-0.0121,0,0,0.0287,0.0285,0.029,0.031,0.0293,0.0312,0.0312,0.0317,0.0339,0.0284,0.0328,0.025,0.0226,0.02,0.0135,0.0111,0.0105,0.0052,0.0049,0.0015,0.0069,-0.0008,-0.0016,0.01,0.0101,0.0102,0.0001,0,0.0348,0.0393,0.0391,0.045,0.0468,0.043,0.0454,0.0445,0.043,0.0452,0.0376,0.0395,0.0285,0.0288,0.0247,0.0151,0.0115,0.0132,0.0021,0.0017,-0.0047,-0.0014,0.0015,-0.0075,0.0001,0.0001,0.0002,0,0.0424,0.0433,0.0494,0.0539,0.0555,0.0593,0.0632,0.0647,0.0641,0.0632,0.0624,0.0585,0.0539,0.045,0.0314,0.0331,0.0214,0.012,0.0115,0.0018,-0.0057,-0.0105,-0.0078,0.0002,0.0002,0.0002,0.0002,0,0.0485,0.0525,0.0575,0.0582,0.0614,0.0654,0.0688,0.0705,0.0733,0.0767,0.082,0.0747,0.0746,0.0595,0.0394,0.0368,0.0235,0.0184,-0.0005,-0.0014,-0.0023,-0.0034,0.0103,0.0103,0.0103,0.0104,0.0104,0,0.0551,0.0593,0.0603,0.0629,0.0687,0.073,0.0825,0.0822,0.0884,0.0982,0.0939,0.1002,0.079,0.0689,0.0467,0.0232,0.0298,0.0015,-0.003,0.0003,-0.0004,0.0042,0.0037,0.01,0.0101,0.0101,0.0102,0,0.0605,0.0609,0.0655,0.0699,0.0709,0.0761,0.0868,0.0952,0.1017,0.1145,0.1177,0.1183,0.1081,0.0829,0.0588,0.0352,0.0118,0.0017,0.004,0.0,-0.0159,-0.0159,-0.0202,-0.0205,-0.0208,-0.021,-0.0212,0,0.0627,0.0657,0.068,0.0706,0.0728,0.0809,0.0876,0.096,0.1082,0.1271,0.1359,0.1331,0.1335,0.0934,0.0523,0.0123,0.01,-0.0123,-0.0172,-0.0144,-0.0183,-0.0179,-0.0175,-0.0164,-0.0166,-0.0167,-0.0168,0,0.0647,0.0659,0.0679,0.0743,0.0812,0.0906,0.1043,0.115,0.1329,0.1497,0.1705,0.173,0.137,0.0998,0.0442,0.0169,-0.0066,-0.0163,-0.0091,-0.0097,-0.0117,-0.0153,-0.0148,-0.0178,-0.0177,-0.0176,-0.0175,-0.0175,0.0631,0.0654,0.0708,0.0788,0.088,0.1067,0.1212,0.1428,0.1673,0.1961,0.1907,0.195,0.1485,0.0783,0.0326,-0.0155,-0.0144,-0.0318,-0.031,-0.0301,-0.0284,-0.0308,-0.0404,-0.0404,-0.0405,-0.0405,-0.0405,0,0.0614,0.0686,0.0768,0.0903,0.1086,0.1107,0.1373,0.1588,0.1961,0.209,0.2225,0.1786,0.1355,0.0848,0.0116,-0.0336,-0.0345,-0.0454,-0.0357,-0.0345,-0.0335,-0.0316,-0.0447,-0.0448,-0.0449,-0.045,0,0,0.061,0.0705,0.0793,0.1081,0.1206,0.1471,0.165,0.1948,0.212,0.2311,0.2277,0.2095,0.1471,0.0935,0.035,-0.0037,-0.0087,-0.0118,-0.0042,0.0151,0.0167,-0.0224,-0.0179,0,0,0,0,0]}],[{"header":{"parameterUnit":"m.s-1","parameterCategory":2,"la1":30.2991,"la2":30.254,"lo1":-89.0895,"lo2":-89.0444,"dy":0.0017,"dx":0.0017,"nx":28,"ny":28,"refTime":"2023-07-29T03:00:00:Z","depth":"4","parameterNumber":2,"parameterNumberName":"U-component_of_CURRENTS"},"data":[0,0,0,0,0,0,0,0,0,0,0,0,0,0,0,0,0,0,0,0,0,0,0,0,0,0,0,0,0,0,0,0,0,0,0,0,0,0,0,0,0,0,0,0,0,0,0,0,0,0,0,0,0,0,0,0,0,0,0.1838,0.1839,0,0.1876,0.1876,0.1875,0.1941,0.1944,0.1946,0.1948,0.2044,0.2044,0.2045,0,0,0,0,0,0,0,0,0,0,0,0,0,0.1701,0.1702,0.1837,0.1839,0.1841,0.1876,0.1876,0.1875,0.1941,0.1944,0.1947,0.1949,0.2044,0.2044,0.2045,0,0,0,0,0,0,0,0,0,0,0,0,0,0.174,0.1703,0.1837,0.1887,0.1893,0.1877,0.1876,0.1875,0.194,0.1944,0.1947,0.1951,0.2044,0.2044,0.2045,0.1977,0,0,0.2046,0.2047,0,0,0,0,0,0,0,0,0.1738,0.1744,0.1878,0.1884,0.189,0.1918,0.1863,0.1916,0.1939,0.1909,0.1948,0.1952,0.2013,0.2016,0.1997,0.1982,0.1986,0.2047,0.2047,0.2047,0.2047,0,0,0,0,0,0,0,0.1735,0.1742,0.184,0.188,0.1887,0.1867,0.1876,0.1872,0.1932,0.1912,0.192,0.1943,0.2015,0.1996,0.2,0.1987,0.2046,0.2047,0.2047,0.2048,0.2164,0.2166,0,0,0,0,0,0,0.1758,0.174,0.184,0.1843,0.1835,0.1868,0.1878,0.1896,0.1931,0.1943,0.194,0.1946,0.1994,0.2,0.2004,0.2113,0.2047,0.2048,0.2048,0.2161,0.2164,0.2167,0,0,0,0,0,0,0.1754,0.1766,0.1838,0.1802,0.1812,0.1869,0.1887,0.1895,0.194,0.1954,0.1965,0.1987,0.1997,0.2003,0.2068,0.2111,0.2048,0.2048,0.2158,0.2162,0.2166,0.2212,0,0,0,0,0,0,0.175,0.1764,0.1784,0.1804,0.1815,0.1865,0.1885,0.1894,0.1951,0.1961,0.1996,0.2005,0.2,0.2067,0.2068,0.2111,0.2049,0.2154,0.216,0.2165,0.2207,0.2217,0.2226,0,0,0,0,0,0.1745,0.1759,0.1784,0.1797,0.1841,0.1867,0.187,0.1913,0.1951,0.1966,0.2013,0.2007,0.2102,0.2069,0.207,0.2113,0.2152,0.2158,0.2164,0.2203,0.2215,0.2226,0,0,0,0,0,0,0.1721,0.1768,0.1797,0.183,0.1867,0.1885,0.1907,0.1939,0.198,0.2008,0.2025,0.2035,0.212,0.2109,0.2073,0.2169,0.2132,0.2139,0.2161,0.2173,0.2182,0.2237,0.2049,0,0,0,0,0,0.1723,0.1746,0.1792,0.1825,0.1847,0.1885,0.1906,0.194,0.198,0.2003,0.2044,0.2088,0.2128,0.215,0.2182,0.2208,0.224,0.2246,0.2256,0.2263,0.2313,0.2399,0.242,0.2188,0.2188,0.2188,0,0,0.173,0.1758,0.1777,0.1822,0.1852,0.1894,0.1905,0.1955,0.1997,0.2005,0.2089,0.213,0.2151,0.2205,0.2239,0.2207,0.234,0.2271,0.2277,0.2324,0.2408,0.243,0.245,0.2192,0.2191,0.2191,0,0,0.1742,0.1778,0.1801,0.1831,0.1892,0.1919,0.1953,0.2007,0.2039,0.2106,0.2144,0.2229,0.2263,0.2303,0.2319,0.2401,0.2401,0.2405,0.2476,0.2557,0.2577,0.2595,0.263,0.2651,0.2392,0.2392,0.2392,0,0.1746,0.1781,0.1813,0.1845,0.1875,0.1947,0.1981,0.2019,0.2096,0.2127,0.2155,0.2304,0.2318,0.2407,0.2443,0.2425,0.2457,0.2418,0.2569,0.2588,0.2606,0.2638,0.266,0.2395,0.2395,0.2394,0.2394,0,0.1784,0.1809,0.1828,0.1895,0.1933,0.197,0.2037,0.2106,0.2172,0.2208,0.2339,0.2398,0.2493,0.2505,0.2495,0.2629,0.2605,0.258,0.2534,0.2632,0.2659,0.2681,0.2399,0.2398,0.2397,0.2397,0,0,0.178,0.1835,0.1847,0.1849,0.1952,0.197,0.2077,0.2151,0.2209,0.2334,0.243,0.254,0.261,0.2641,0.2669,0.2743,0.2869,0.272,0.2723,0.2746,0.3031,0.2795,0.2797,0.2868,0.2873,0.2877,0.2985,0,0.1794,0.1807,0.187,0.191,0.1904,0.2012,0.2094,0.2182,0.2255,0.2369,0.2497,0.2612,0.2643,0.2717,0.2806,0.2883,0.2939,0.2842,0.2945,0.2949,0.2719,0.2819,0.2893,0.3002,0.3007,0.3011,0.3014,0,0.181,0.1794,0.181,0.1849,0.1873,0.1947,0.2062,0.2162,0.2335,0.2389,0.2565,0.267,0.288,0.2867,0.3092,0.3032,0.305,0.3086,0.309,0.2883,0.2756,0.2897,0.3055,0.3051,0.3048,0.3046,0.3043,0,0.171,0.1757,0.1748,0.1764,0.1847,0.1911,0.2027,0.2175,0.224,0.2463,0.2547,0.2777,0.2944,0.3068,0.3188,0.3156,0.3383,0.3325,0.3125,0.3107,0.3263,0.3243,0.3449,0.3448,0.3448,0.3448,0.3448,0,0.1653,0.1645,0.1701,0.1681,0.1708,0.1846,0.1954,0.2062,0.2259,0.2363,0.2595,0.2719,0.3012,0.3172,0.3234,0.3268,0.3427,0.3179,0.3139,0.3273,0.3253,0.3276,0.3255,0.3452,0.3451,0.345,0.345,0,0.1522,0.1574,0.1535,0.1605,0.1646,0.1687,0.1903,0.1984,0.2194,0.2361,0.2466,0.2735,0.2973,0.3174,0.3373,0.33,0.3357,0.3296,0.3434,0.3394,0.3008,0.2989,0.3108,0.3101,0.3095,0.309,0.3086,0,0.1422,0.1386,0.1437,0.1439,0.1479,0.1595,0.1699,0.1921,0.2021,0.2342,0.2409,0.2708,0.2885,0.3016,0.3196,0.3302,0.3247,0.3227,0.313,0.3035,0.2985,0.2974,0.2963,0.3077,0.3075,0.3074,0.3072,0,0.1193,0.1255,0.1253,0.1268,0.1338,0.1406,0.1582,0.1625,0.1944,0.2133,0.2331,0.2486,0.2716,0.2905,0.3002,0.3054,0.3237,0.3165,0.3176,0.3085,0.2998,0.2952,0.2948,0.3052,0.3055,0.3057,0.3058,0,0.1045,0.1013,0.1067,0.1084,0.1148,0.1197,0.1326,0.1515,0.1658,0.2037,0.2094,0.2428,0.2696,0.277,0.2858,0.2913,0.2866,0.2756,0.2788,0.2812,0.2664,0.2507,0.2409,0,0,0,0,0,0.0878,0.0877,0.0875,0.0907,0.0979,0.1038,0.1227,0.1397,0.1709,0.1794,0.1944,0.2161,0.2351,0.2495,0.25,0.2674,0.2835,0.2656,0.2712,0.2938,0.2962,0.2814,0,0,0,0,0,0,0.0773,0.0785,0.0821,0.0763,0.0778,0.0864,0.0985,0.1207,0.1296,0.1619,0.176,0.1984,0.2219,0.2343,0.2448,0.2487,0.2465,0.2844,0.2837,0.2925,0.2946,0.2965,0.2821,0,0,0,0,0]},{"header":{"parameterUnit":"m.s-1","parameterCategory":2,"la1":30.2991,"la2":30.254,"lo1":-89.0895,"lo2":-89.0444,"dy":0.0017,"dx":0.0017,"nx":28,"ny":28,"refTime":"2023-07-29T03:00:00:Z","depth":"4","parameterNumber":3,"parameterNumberName":"V-component_of_CURRENTS"},"data":[0,0,0,0,0,0,0,0,0,0,0,0,0,0,0,0,0,0,0,0,0,0,0,0,0,0,0,0,0,0,0,0,0,0,0,0,0,0,0,0,0,0,0,0,0,0,0,0,0,0,0,0,0,0,0,0,0,0,0.0061,0.0061,0,0.005,0.005,0.005,0.0051,0.0051,0.0051,0.0051,-0.0028,-0.003,-0.0032,0,0,0,0,0,0,0,0,0,0,0,0,0,0.0066,0.0066,0.0061,0.0061,0.006,0.005,0.005,0.005,0.0051,0.0051,0.0051,0.0051,-0.0027,-0.003,-0.0032,0,0,0,0,0,0,0,0,0,0,0,0,0,0.0062,0.0066,0.0061,0.0058,0.0057,0.005,0.005,0.005,0.0051,0.0051,0.0051,0.0051,-0.0026,-0.0029,-0.0032,-0.0049,0,0,-0.0042,-0.0043,0,0,0,0,0,0,0,0,0.0063,0.0063,0.0059,0.0058,0.0057,0.0049,0.0022,0.0012,0.0051,0.0056,0.0051,0.0051,-0.001,-0.0014,-0.0011,-0.0053,-0.0056,-0.0042,-0.0044,-0.0045,-0.0046,0,0,0,0,0,0,0,0.0063,0.0063,0.0059,0.0058,0.0057,0.005,0.005,0.0021,0.0025,0.0056,0.0055,0.005,-0.0011,-0.0008,-0.0014,-0.0057,-0.0042,-0.0045,-0.0046,-0.0048,-0.0135,-0.0136,0,0,0,0,0,0,0.006,0.0063,0.006,0.0059,0.0057,0.005,0.005,0.0054,0.0026,0.0022,0.005,0.005,-0.0003,-0.001,-0.0017,-0.0046,-0.0045,-0.0048,-0.005,-0.0135,-0.0135,-0.0136,0,0,0,0,0,0,0.006,0.006,0.006,0.0058,0.0057,0.005,0.0055,0.0054,0.0056,0.0022,0.0017,0.0052,-0.0004,-0.0012,-0.005,-0.0049,-0.0049,-0.0052,-0.0134,-0.0135,-0.0136,-0.01,0,0,0,0,0,0,0.0061,0.0061,0.0065,0.0058,0.0057,0.0062,0.0054,0.0054,0.0052,0.0052,0.0022,0.0015,-0.0004,-0.0045,-0.0053,-0.0053,-0.0054,-0.0133,-0.0134,-0.0135,-0.0101,-0.01,-0.0099,0,0,0,0,0,0.0061,0.0077,0.0066,0.0065,0.0063,0.0062,0.0062,0.0057,0.0052,0.0059,0.0027,0.0016,-0.0056,-0.0048,-0.0057,-0.0058,-0.0133,-0.0134,-0.0135,-0.0101,-0.01,-0.0099,0,0,0,0,0,0,0.0084,0.0078,0.0066,0.0079,0.0068,0.0061,0.0071,0.0059,0.0042,0.0037,0.0006,-0.0004,-0.0036,-0.0056,-0.0046,-0.0087,-0.0095,-0.0098,-0.0066,-0.0065,-0.0064,-0.0052,-0.0057,0,0,0,0,0,0.0087,0.0096,0.0083,0.009,0.0091,0.0078,0.0077,0.0067,0.0049,0.0044,0.002,-0.0012,-0.0047,-0.0063,-0.0093,-0.0117,-0.0151,-0.0123,-0.0122,-0.0121,-0.0118,-0.0175,-0.0179,-0.0139,-0.0139,-0.0139,0,0,0.0095,0.0093,0.0096,0.0094,0.0091,0.0096,0.0079,0.0079,0.0071,0.0034,0.0022,-0.0012,-0.0055,-0.0081,-0.0096,-0.0097,-0.0152,-0.0123,-0.0121,-0.0119,-0.0177,-0.0181,-0.0184,-0.014,-0.014,-0.014,0,0,0.0119,0.0117,0.0133,0.0128,0.0118,0.0111,0.011,0.0099,0.0086,0.0063,0.0029,-0.0007,-0.0043,-0.0077,-0.01,-0.0114,-0.0147,-0.012,-0.0101,-0.0156,-0.016,-0.0163,-0.0214,-0.0222,-0.0115,-0.0115,-0.0115,0,0.0125,0.0143,0.0136,0.0147,0.0151,0.012,0.0136,0.0114,0.0085,0.007,0.0064,-0.0003,-0.0042,-0.0086,-0.0091,-0.0111,-0.0146,-0.0099,-0.0154,-0.0158,-0.0163,-0.0214,-0.0223,-0.0114,-0.0114,-0.0114,-0.0114,0,0.0158,0.0168,0.0181,0.0186,0.019,0.0196,0.0169,0.0155,0.0136,0.0109,0.0066,0.0015,-0.002,-0.0042,-0.0072,-0.012,-0.0136,-0.0148,-0.0153,-0.0164,-0.0218,-0.0228,-0.0112,-0.0112,-0.0113,-0.0113,0,0,0.0183,0.0201,0.0204,0.0224,0.0212,0.0228,0.0205,0.0186,0.0173,0.0131,0.012,0.0045,0.002,-0.0009,-0.0052,-0.0104,-0.0171,-0.0134,-0.0138,-0.0177,-0.0293,-0.0281,-0.0291,-0.0192,-0.0193,-0.0195,-0.0319,0,0.021,0.0251,0.0247,0.0285,0.0313,0.0282,0.0279,0.0248,0.0204,0.0181,0.0111,0.0087,0.0031,0.0025,-0.0044,-0.0135,-0.0197,-0.0136,-0.0283,-0.0287,-0.0269,-0.0302,-0.02,-0.0327,-0.0329,-0.0331,-0.0333,0,0.0244,0.0272,0.032,0.0357,0.0369,0.0385,0.0382,0.0371,0.0303,0.027,0.0212,0.0156,0.0076,0.0042,-0.0133,-0.009,-0.019,-0.0266,-0.0272,-0.0279,-0.0294,-0.0316,-0.0352,-0.0351,-0.0349,-0.0348,-0.0347,0,0.0291,0.0328,0.0378,0.0386,0.0415,0.0434,0.0453,0.0405,0.0407,0.0336,0.0334,0.0208,0.0181,0.0028,-0.0143,-0.0137,-0.0334,-0.0343,-0.0432,-0.0432,-0.042,-0.0415,-0.0471,-0.0471,-0.0471,-0.047,-0.047,0,0.0327,0.0367,0.0411,0.044,0.0519,0.0514,0.0568,0.0542,0.0515,0.0531,0.0406,0.0381,0.0177,0.0037,-0.013,-0.0316,-0.0331,-0.0438,-0.0467,-0.0403,-0.0395,-0.0428,-0.0422,-0.0475,-0.0474,-0.0473,-0.0472,0,0.0368,0.0384,0.0459,0.0516,0.0549,0.0614,0.0688,0.0713,0.0669,0.0684,0.0679,0.0515,0.0333,0.0107,-0.0145,-0.0274,-0.0467,-0.0532,-0.0451,-0.0472,-0.0531,-0.0522,-0.0634,-0.0635,-0.0635,-0.0636,-0.0636,0,0.0392,0.0433,0.054,0.0603,0.0638,0.0734,0.0805,0.0806,0.0825,0.0764,0.0777,0.0607,0.0478,0.0134,-0.0123,-0.045,-0.0491,-0.059,-0.0565,-0.0533,-0.055,-0.0539,-0.0529,-0.0637,-0.0637,-0.0637,-0.0638,0,0.0449,0.0487,0.0552,0.0687,0.0787,0.0887,0.0973,0.0992,0.0986,0.0968,0.087,0.0673,0.0462,0.016,-0.01,-0.0336,-0.0526,-0.0597,-0.0597,-0.0574,-0.0538,-0.0552,-0.0541,-0.064,-0.0639,-0.0639,-0.0639,0,0.0503,0.0557,0.0648,0.0763,0.0877,0.0959,0.1021,0.1051,0.1072,0.0997,0.0967,0.0719,0.0576,0.0217,-0.0028,-0.0258,-0.0307,-0.0367,-0.038,-0.0381,-0.0275,-0.019,-0.0215,0,0,0,0,0,0.0546,0.0597,0.0713,0.0824,0.0928,0.0999,0.1083,0.1121,0.1125,0.109,0.1024,0.0828,0.0462,0.0284,0.0061,-0.0062,-0.0371,-0.0333,-0.0451,-0.065,-0.0648,-0.0567,0,0,0,0,0,0,0.0574,0.067,0.0712,0.0833,0.0912,0.1039,0.1091,0.1117,0.1082,0.1054,0.0863,0.079,0.0426,0.0601,0.0064,-0.0011,-0.0113,-0.05,-0.0505,-0.0652,-0.065,-0.0648,-0.0563,0,0,0,0,0]}]]